Theta_e
311 315 323 323 317 315 316 319 322 325 327 327 327 331 343 349 351 358 356 356 357 352 348 344 348 350 350 347 342 339 335 330 327 329 334 340 338 332 331 333 340 342 344 340 339 336 333 327 325
311 319 327 322 313 313 314 318 319 323 326 328 329 330 332 359 351 348 355 358 355 352 345 344 347 348 349 347 342 338 335 330 327 328 339 350 340 334 333 338 341 344 343 339 338 334 325 324 324
321 325 328 316 313 313 312 316 317 320 321 321 322 330 338 358 349 348 358 357 354 351 345 344 345 346 348 347 341 340 334 330 328 330 339 351 343 335 337 340 342 341 342 339 339 336 325 324 324
322 319 322 316 315 314 316 315 317 319 319 320 325 331 350 354 355 359 358 358 354 351 346 343 343 343 345 347 341 341 333 329 329 330 338 349 345 338 339 340 340 340 339 339 334 325 324 325 326
321 318 317 316 316 317 318 318 317 318 318 319 321 332 353 354 357 360 359 358 354 353 349 344 343 341 342 347 342 342 332 329 329 331 337 349 348 342 342 341 340 337 333 327 325 324 324 326 326
317 316 320 318 318 319 319 318 318 319 319 319 319 325 347 354 358 361 360 358 355 355 352 345 344 341 342 345 343 342 331 329 329 331 337 349 349 346 345 344 341 338 334 330 331 329 326 325 325
312 315 318 318 320 320 319 318 319 320 319 319 321 322 344 350 355 361 360 357 356 355 351 346 348 347 343 345 344 342 331 329 328 331 335 345 346 344 341 337 335 334 333 332 331 330 326 325 324
311 311 315 317 319 318 317 318 317 317 320 322 323 320 348 350 353 359 359 358 357 356 353 346 352 353 353 346 344 339 331 330 328 330 334 339 344 342 337 335 334 331 330 330 327 325 324 324 328
308 311 313 314 316 317 316 317 318 318 318 319 321 322 350 351 354 355 359 358 357 356 353 345 353 354 353 347 345 336 333 332 329 332 334 339 339 339 336 334 330 331 329 326 324 323 322 326 329
306 306 312 313 314 314 315 315 315 317 317 318 319 323 348 350 352 352 358 358 356 353 353 345 352 353 350 350 344 336 337 335 332 332 335 335 337 336 334 334 341 328 326 325 323 322 323 327 328
309 308 309 311 312 313 314 314 315 315 315 316 318 320 327 341 342 350 355 358 356 354 351 349 350 353 352 352 348 340 342 339 335 331 334 335 340 340 341 340 338 329 327 325 326 327 327 326 338
312 310 310 310 310 310 310 311 312 313 314 315 317 321 320 319 339 340 349 357 356 352 350 349 349 352 353 350 348 345 344 340 336 331 330 340 345 340 344 342 340 328 328 329 334 329 333 341 343
313 313 313 311 310 311 311 311 310 311 313 314 315 320 319 319 319 328 343 351 354 351 349 347 346 348 349 348 349 345 343 340 339 335 329 339 344 340 341 342 335 334 335 336 338 338 339 344 343
312 313 313 312 312 311 312 311 311 312 313 313 314 317 318 318 318 321 327 344 354 351 348 346 344 345 346 345 345 343 341 337 339 339 330 338 345 342 342 344 340 338 339 337 338 340 343 346 346
314 313 313 313 313 312 312 312 312 313 313 312 313 314 317 317 317 318 322 325 355 351 346 344 343 344 344 342 343 341 340 338 338 340 331 344 347 345 340 342 341 339 341 340 341 347 346 347 348
314 313 313 313 313 313 312 313 313 312 312 312 312 313 314 315 315 316 321 322 341 351 349 344 345 347 343 339 339 338 337 340 339 340 334 345 346 345 341 341 339 337 337 337 339 343 346 346 345
313 315 315 315 315 314 313 313 313 312 311 312 312 312 313 313 313 315 317 323 347 352 347 345 346 347 345 341 340 340 338 339 339 340 338 345 343 343 339 339 338 336 338 343 347 348 346 341 339
317 316 316 318 318 317 315 314 313 311 312 312 312 313 313 313 314 314 316 319 349 349 347 346 343 347 347 346 346 348 342 345 342 345 343 343 341 346 342 339 339 337 343 349 347 344 341 338 334
318 318 317 317 317 317 315 315 315 313 313 312 310 311 313 313 314 315 315 317 349 349 347 342 345 340 338 342 349 350 350 346 348 346 346 344 344 346 340 343 346 342 345 347 345 340 338 331 332
318 319 319 318 318 318 317 316 316 315 313 313 313 312 312 313 313 314 315 316 350 346 345 343 342 338 336 345 350 352 349 351 351 349 348 346 347 345 341 348 347 346 346 346 342 340 337 333 332
316 318 319 319 319 318 319 319 317 316 316 315 314 313 314 313 314 314 315 315 349 342 340 341 343 344 348 350 351 352 350 351 351 351 349 349 347 343 343 349 345 344 342 341 338 337 335 332 332
318 317 318 319 321 322 321 323 317 318 318 317 316 314 315 313 313 314 314 315 350 350 341 339 337 342 347 348 351 352 350 351 351 350 349 346 343 346 347 346 344 341 339 335 333 332 331 331 331
317 316 317 317 320 320 321 325 320 318 318 317 317 316 314 314 314 313 314 317 326 352 352 349 342 336 340 339 349 350 349 350 349 348 347 346 348 347 345 342 340 337 336 333 331 329 326 324 323
319 321 320 319 320 325 322 323 320 319 319 318 317 317 317 316 315 313 314 318 331 356 354 353 349 344 350 342 347 348 349 350 349 346 345 344 344 342 341 338 336 335 331 330 328 325 324 322 323
321 324 327 327 326 325 319 322 320 318 317 317 317 316 316 315 315 314 313 314 334 355 354 354 354 353 352 350 349 349 350 349 346 344 342 342 340 338 336 335 333 332 330 325 323 320 320 319 317
316 322 326 327 327 327 321 324 320 318 318 318 317 318 317 315 315 314 313 313 321 353 354 355 355 353 352 350 349 350 349 346 344 343 341 340 338 335 334 332 330 328 323 323 322 321 322 321 319
316 319 321 323 322 323 320 316 315 316 317 319 318 319 318 316 314 315 313 313 317 350 351 353 353 351 350 348 348 348 347 343 342 340 340 336 334 334 332 329 326 323 324 322 319 318 319 321 320
315 317 321 323 319 320 318 317 316 320 319 320 319 317 317 316 315 315 314 314 321 346 351 351 349 348 348 348 347 347 344 342 340 338 336 334 332 331 327 324 323 323 322 319 318 320 321 320 317
317 319 321 323 326 325 320 317 316 318 320 319 317 318 315 316 317 316 314 314 329 349 351 349 346 344 348 346 346 342 341 339 337 335 333 331 330 326 324 321 320 320 321 321 320 321 320 319 318
314 318 320 325 322 320 318 318 315 314 317 315 314 316 315 314 317 312 313 314 341 350 350 348 343 341 345 346 343 341 337 336 334 332 330 329 325 323 322 321 320 320 320 321 321 322 320 319 319
Wind_Speed
14 8 11 5 3 2 5 8 8 16 14 10 9 6 10 7 6 5 13 17 26 39 35 30 30 29 28 25 24 23 19 20 20 21 23 23 22 21 23 23 20 18 16 15 13 11 9 8 8
12 9 6 3 4 2 6 10 17 19 22 17 9 3 5 5 4 6 9 27 34 43 36 32 31 29 27 27 24 23 21 20 21 22 22 19 21 21 21 21 18 16 15 13 10 9 8 8 7
10 3 1 4 4 8 6 8 12 14 13 22 7 3 6 10 9 9 28 34 37 42 37 32 31 30 28 26 25 24 22 21 21 22 23 18 19 21 19 18 16 15 13 10 8 7 7 7 6
7 2 3 1 10 10 16 12 17 19 14 14 8 2 7 16 21 27 40 34 37 37 35 32 31 30 29 27 26 25 24 22 22 23 23 18 18 19 18 16 14 13 11 9 7 7 6 6 5
9 2 4 5 11 12 17 15 13 16 9 13 8 5 7 7 33 47 44 38 40 35 33 32 30 29 30 29 27 25 25 23 23 24 23 20 18 19 17 15 14 12 11 9 7 6 6 5 4
3 3 3 8 15 16 14 13 12 17 13 14 11 6 3 28 38 36 40 37 37 38 33 31 28 29 29 30 29 27 26 25 24 25 24 21 20 18 16 15 13 11 9 8 7 6 5 5 3
4 4 6 10 13 17 16 13 9 15 12 13 6 4 5 12 31 36 35 37 36 35 33 30 27 26 29 30 30 28 28 26 25 25 25 23 21 18 16 15 13 11 9 8 7 6 5 4 3
4 3 9 12 12 14 12 15 9 9 18 17 5 4 4 11 32 37 36 38 36 33 32 31 28 26 27 30 29 29 28 27 26 26 25 23 21 18 16 14 11 10 9 9 8 7 7 5 5
6 6 10 9 12 13 15 14 18 17 13 20 16 7 13 24 30 30 34 34 33 31 32 33 30 30 28 31 30 28 28 26 25 25 25 24 22 19 16 12 11 9 9 8 8 8 7 7 6
5 5 7 9 14 14 13 15 14 18 19 18 23 5 21 22 21 17 26 27 29 31 30 38 33 32 31 29 32 30 28 27 27 26 26 25 21 18 15 12 11 9 9 9 9 8 8 8 5
8 10 12 16 17 14 14 17 9 15 16 14 19 22 3 6 8 10 21 36 38 41 35 36 35 32 31 28 30 32 29 28 26 25 26 24 20 20 15 13 13 12 11 11 10 9 9 6 3
5 12 13 11 10 9 9 11 15 13 21 15 20 19 16 9 9 10 12 30 35 38 41 42 36 31 27 32 32 31 29 27 26 27 27 27 23 21 19 16 15 14 13 12 9 10 7 6 4
8 9 10 9 8 8 10 10 9 18 18 14 19 17 13 15 8 12 25 24 35 36 38 41 42 32 30 31 26 31 30 29 27 27 30 28 24 22 20 17 16 16 15 13 12 11 11 10 7
8 12 12 10 10 8 8 8 9 23 16 17 17 16 14 14 10 13 22 17 38 29 31 38 42 38 34 32 28 31 33 33 30 28 31 26 18 24 22 18 17 16 15 12 14 15 14 10 6
16 13 15 11 8 9 8 11 15 21 18 16 17 17 16 16 18 14 18 19 33 31 31 29 29 29 33 29 29 29 32 33 31 29 28 21 18 19 17 13 17 11 10 9 11 8 10 8 12
13 9 8 9 14 19 9 18 21 13 14 17 14 16 16 17 13 23 30 25 6 42 39 34 21 23 30 31 29 31 32 32 31 27 27 23 19 18 15 16 10 10 7 7 7 4 6 11 9
7 12 16 20 19 18 11 22 19 14 11 17 14 12 14 18 19 25 30 25 17 38 51 56 40 21 17 30 28 28 30 30 27 25 28 22 21 19 19 15 13 9 8 6 8 12 13 15 12
11 11 14 15 16 14 8 13 9 9 13 13 11 11 15 15 18 25 29 32 21 44 53 53 40 36 21 19 27 28 31 31 31 29 27 27 23 17 15 15 10 14 9 14 13 15 14 12 7
15 17 19 18 15 14 15 14 15 11 6 9 10 12 13 16 16 28 28 28 24 37 42 45 41 45 36 24 35 31 32 33 33 32 28 28 24 18 16 6 14 15 11 14 15 15 14 16 9
20 20 23 20 18 18 17 19 13 13 7 12 9 8 11 13 14 15 26 28 31 38 44 42 47 46 49 53 36 34 34 31 31 34 33 29 24 20 15 11 11 12 12 12 15 12 13 12 13
18 17 17 20 18 17 14 26 16 12 12 12 10 10 12 19 14 13 22 30 26 37 41 45 47 44 43 43 39 32 28 25 27 35 32 28 25 22 15 14 13 11 11 14 15 12 10 6 7
21 14 17 17 10 13 7 19 18 5 12 12 12 14 16 16 15 14 15 21 23 42 46 45 57 59 41 46 32 33 28 21 25 30 29 28 26 21 17 15 12 10 12 12 9 9 8 9 8
26 18 17 20 10 13 10 8 23 6 15 16 19 14 13 19 15 15 14 23 28 42 47 47 51 55 48 46 41 42 31 25 30 34 32 30 28 23 17 14 11 14 12 11 11 12 13 13 13
16 13 14 11 7 13 8 13 22 14 20 18 17 18 19 22 19 15 16 20 25 39 42 46 50 53 51 56 57 44 36 34 34 34 33 32 28 23 17 15 15 13 17 16 17 17 13 12 13
12 4 3 4 7 12 9 11 19 5 13 20 21 20 16 23 21 17 16 12 13 35 37 41 41 42 49 49 44 37 39 36 38 33 33 32 28 24 22 21 21 20 19 18 17 16 14 12 11
15 7 3 6 4 3 4 8 5 10 18 16 15 14 18 16 17 17 17 11 11 29 35 39 39 37 42 46 36 36 39 36 34 36 34 31 29 28 26 23 22 20 20 20 18 17 14 13 14
2 5 7 4 8 4 6 10 12 21 21 13 10 7 11 12 11 16 17 14 11 29 35 39 38 35 34 37 36 35 32 35 34 33 32 31 32 30 27 24 23 23 20 17 16 17 16 14 14
13 5 3 4 4 6 5 7 4 9 10 7 6 6 6 10 13 15 18 19 13 29 35 40 41 38 40 41 39 38 39 36 32 34 35 36 32 31 28 27 26 23 18 18 18 18 17 17 16
2 2 3 4 4 3 5 5 7 6 3 10 9 9 9 6 13 17 21 21 20 29 31 33 40 43 43 36 35 42 41 43 38 37 36 35 33 32 29 27 25 21 19 17 19 17 17 17 15
18 8 12 4 4 4 6 14 8 9 8 8 10 8 9 7 11 8 17 22 15 25 33 31 38 44 38 37 40 38 43 42 37 33 34 35 35 33 30 27 24 23 20 16 13 17 18 17 16
Wind_Direction
304 290 305 290 41 113 250 248 245 273 282 252 277 79 117 121 148 190 157 161 156 159 160 161 155 151 149 148 147 143 139 136 136 137 135 130 129 130 131 130 129 127 122 114 109 109 108 102 97
314 301 266 279 140 223 259 239 252 255 256 280 304 59 35 77 84 112 145 153 157 160 162 163 157 153 153 150 151 146 143 141 142 142 140 128 132 134 134 133 133 131 127 119 108 103 105 102 97
310 266 54 165 207 216 237 244 253 269 308 315 299 82 90 123 115 122 139 147 155 157 165 163 159 157 155 153 156 151 147 146 147 146 144 135 136 137 137 136 136 135 132 130 120 110 108 107 102
313 308 297 243 249 249 240 265 272 284 300 290 315 115 68 134 144 141 147 151 154 156 167 164 163 161 157 157 160 155 152 152 153 150 147 140 141 140 141 142 140 138 137 134 131 127 122 121 120
288 273 229 233 246 261 272 269 272 282 287 304 336 279 87 114 130 140 148 153 154 161 169 166 169 164 160 163 162 160 155 156 156 154 151 145 145 144 145 146 143 143 142 141 138 137 139 142 144
306 156 268 238 254 261 266 269 280 280 281 293 322 345 81 137 137 139 140 144 149 159 167 167 171 167 164 164 163 163 159 159 158 158 154 152 153 151 150 151 149 150 149 152 154 157 166 163 158
202 308 247 255 270 280 279 283 266 274 288 280 262 334 164 125 136 139 141 143 154 160 164 167 169 170 166 168 164 166 165 161 162 162 160 160 162 160 159 156 154 156 159 168 173 180 187 180 159
191 250 265 265 271 273 275 296 300 318 309 305 223 259 115 145 146 144 142 144 153 160 166 169 167 166 167 168 167 168 168 164 165 165 166 166 168 167 164 158 159 165 175 181 186 190 192 188 161
285 257 256 265 274 288 295 304 316 338 340 331 292 119 133 134 142 142 130 136 142 158 168 173 169 169 170 169 169 170 170 167 168 167 167 169 171 172 169 166 164 177 188 189 190 193 196 190 203
195 269 266 255 277 284 287 308 326 331 334 324 338 53 132 141 154 153 145 150 150 151 163 175 175 172 171 169 169 170 169 169 170 170 171 172 174 172 174 176 175 187 189 188 188 187 193 207 223
233 238 249 264 275 284 293 301 316 320 304 315 318 322 142 148 170 171 170 159 160 162 163 174 175 169 168 167 169 168 172 173 172 174 173 172 171 172 173 175 184 194 186 184 183 189 202 218 234
270 245 241 244 262 289 297 302 298 297 286 306 306 317 332 322 184 201 185 157 161 163 168 170 173 166 165 175 169 172 175 176 174 178 175 177 185 181 184 196 197 194 187 185 192 204 207 192 222
325 309 320 313 311 299 294 297 294 291 297 297 299 310 323 326 346 325 202 177 165 167 166 166 168 167 174 172 170 175 178 179 179 178 176 178 185 183 185 192 182 186 184 189 203 214 214 211 218
300 306 302 299 300 298 304 300 321 291 298 304 301 297 309 310 325 321 317 165 158 174 163 159 166 171 177 174 175 178 179 180 179 184 179 181 200 188 191 197 210 208 207 204 220 220 203 202 164
318 312 303 303 283 268 256 269 252 264 282 281 290 299 296 298 311 310 296 318 157 145 139 149 164 167 171 178 180 181 183 177 180 183 182 177 183 192 189 186 188 189 194 194 196 147 174 148 125
291 285 280 267 258 259 214 252 248 250 268 274 273 283 289 290 293 301 298 294 146 141 140 139 170 170 176 177 182 184 185 182 183 181 182 183 188 193 197 201 201 191 200 235 235 257 153 118 114
270 261 259 266 252 242 223 243 249 234 235 258 260 259 264 277 283 285 291 288 138 144 144 159 160 163 175 172 185 188 190 186 187 181 181 182 188 189 199 194 199 202 228 209 150 115 115 107 95
258 274 285 290 303 309 262 290 287 251 218 239 257 263 260 261 264 272 274 286 156 151 160 169 174 166 164 189 192 192 191 184 183 187 184 187 186 191 200 197 221 199 165 117 116 118 102 86 83
276 287 283 284 286 296 295 262 257 266 249 265 251 253 265 251 257 260 264 272 157 154 158 168 152 150 140 214 195 193 186 189 183 192 188 182 184 191 192 173 165 169 136 114 111 115 114 69 72
242 250 265 272 280 279 285 277 269 260 242 242 225 278 272 273 252 254 258 258 156 161 166 163 166 171 165 199 199 196 189 192 187 184 185 178 179 183 188 166 139 132 132 128 124 122 99 72 45
286 267 253 266 272 264 310 285 276 264 260 251 226 225 253 258 262 254 237 248 163 163 163 168 169 182 182 194 190 197 189 194 165 173 172 174 174 167 163 145 133 135 130 118 116 113 92 92 56
282 289 301 306 308 271 214 275 260 257 276 265 260 232 239 249 247 254 248 226 180 166 173 172 174 186 192 193 193 191 193 176 157 154 159 151 152 148 144 142 151 129 128 125 123 120 114 93 85
281 287 285 287 262 285 257 259 270 222 253 252 255 246 248 253 243 244 257 228 201 175 172 178 185 173 182 190 204 194 190 166 143 149 144 137 134 135 138 137 128 130 130 123 122 114 105 108 105
310 326 318 314 273 258 226 228 264 238 245 255 257 240 235 244 249 238 244 249 177 172 172 170 176 183 191 188 202 192 166 149 139 139 130 130 132 132 132 126 133 139 126 120 119 113 107 101 97
49 18 282 246 220 254 197 224 241 276 243 245 249 254 244 230 236 235 235 239 188 166 173 177 179 181 184 188 177 185 151 146 144 138 132 135 136 133 132 135 134 131 128 124 114 108 99 93 91
284 162 271 295 245 294 275 251 245 230 254 253 271 256 245 251 230 224 231 220 173 175 168 173 183 180 187 183 173 158 146 144 140 143 144 141 139 134 138 142 135 129 122 114 109 105 102 92 86
224 194 163 252 235 254 224 273 282 265 255 260 259 346 269 238 246 228 231 223 191 183 184 171 180 180 170 170 165 143 142 139 138 137 143 134 136 139 142 138 127 121 118 115 112 107 101 104 89
239 158 271 204 241 243 230 275 262 11 0 323 303 272 318 275 242 260 225 232 198 191 183 176 172 163 160 160 160 143 143 139 138 143 137 138 136 144 140 133 127 122 115 112 109 111 111 98 89
287 347 183 240 230 271 299 249 191 128 330 311 276 272 281 306 298 241 219 230 181 189 180 170 160 156 161 158 146 138 133 140 141 138 140 143 144 140 133 127 120 122 121 122 112 118 112 103 95
251 229 208 236 235 232 260 257 293 297 213 228 278 280 283 279 297 230 204 223 170 182 180 165 155 158 162 146 142 138 132 130 132 133 136 140 139 131 125 121 119 117 116 119 111 121 108 103 100